This is the latest recevied weather packets stored in our database for station/object KT2UU-13. If no packets are shown the sender has not sent any weather packets the latest 10 day(s).
| Time | Temp. | Humidity | Pressure | Rain* | Wind** | Luminosity | Snow |
|---|---|---|---|---|---|---|---|
| 1777577890 | 20.56° C | 54% | 1014.2 hPa | 0 mm | - | - | - |
| 1777577586 | 20.56° C | 55% | 1014.4 hPa | 0 mm | - | - | - |
| 1777577283 | 20.56° C | 55% | 1014.2 hPa | 0 mm | - | - | - |
| 1777576979 | 20.56° C | 53% | 1014.3 hPa | 0 mm | - | - | - |
| 1777576675 | 20.56° C | 55% | 1014.3 hPa | 0 mm | - | - | - |
| 1777576375 | 20° C | 53% | 1014.2 hPa | 0 mm | - | - | - |
| 1777576072 | 20.56° C | 52% | 1014.3 hPa | 0 mm | - | - | - |
| 1777575768 | 20° C | 55% | 1014.2 hPa | 0 mm | - | - | - |
| 1777575464 | 20° C | 54% | 1014.3 hPa | 0 mm | - | - | - |
| 1777575160 | 19.44° C | 54% | 1014.2 hPa | 0 mm | - | - | - |
| 1777574856 | 19.44° C | 55% | 1014.4 hPa | 0 mm | - | - | - |
| 1777574554 | 19.44° C | 55% | 1014.2 hPa | 0 mm | - | - | - |
| 1777574250 | 19.44° C | 56% | 1014.2 hPa | 0 mm | - | - | - |
| 1777573945 | 20° C | 55% | 1014.2 hPa | 0 mm | - | - | - |
| 1777573640 | 19.44° C | 58% | 1013.9 hPa | 0 mm | - | - | - |
| 1777573336 | 19.44° C | 60% | 1014.2 hPa | 0 mm | - | - | - |
| 1777573032 | 20° C | 58% | 1014 hPa | 0 mm | - | - | - |
| 1777572729 | 20° C | 59% | 1014.1 hPa | 0 mm | - | - | - |
| 1777572424 | 19.44° C | 60% | 1014.2 hPa | 0 mm | - | - | - |
| 1777572114 | 20° C | 59% | 1014.2 hPa | 0 mm | - | - | - |
| 1777571809 | 20° C | 58% | 1014 hPa | 0 mm | - | - | - |
| 1777571506 | 20° C | 58% | 1014.3 hPa | 0 mm | - | - | - |
| 1777571203 | 19.44° C | 58% | 1014.3 hPa | 0 mm | - | - | - |
| 1777570897 | 19.44° C | 62% | 1014.2 hPa | 0 mm | - | - | - |
| 1777570594 | 19.44° C | 59% | 1014.4 hPa | 0 mm | - | - | - |
* Rain latest hour (hover to see other rain measurements)
** Current wind speed in m/s (hover to see current wind gust speed)